Terug naar catalogus

SL-8 R/B

ActiefLEO
NORAD 10962·ROCKET BODY·🇷🇺 Russia

Gelanceerd Jun 21, 1978 vanaf Plesetsk Cosmodrome

Loading…

Volgende Passages (komende 24 uur)

TLE

VersSource: Space-Track

Epoch: Sep 14, 2026, 12:40 UTC

1 10962U 78063B   26257.52816335  .00000206  00000-0  69229-4 0  9997
2 10962  74.0761 100.4282 0025360 214.8636 145.0860 14.42928352532215

Volg SL-8 R/B in realtime met AllMySat

Download on the App Store